• In Hungary
  • List of Countries
  • For 7 days
  • Water Temperature
  • Satellite Maps
  • Weather Map
  • News
  • Weather Widgets
  • user-avatar
    Login

    Hourly Weather Kleny

    Today, 23 September, Sunday

    Time Temperature Precipitation Wind Pressure Humidity
    00:00 +19°C° 0 mm 1 mps 760 mmHg 73%
    01:00 +18°C° 0 mm 1 mps 759 mmHg 75%
    02:00 +18°C° 0 mm 1 mps 759 mmHg 76%
    03:00 +16°C° 0 mm 1 mps 759 mmHg 81%
    04:00 +16°C° 0 mm 1 mps 759 mmHg 82%
    05:00 +16°C° 0 mm 2 mps 759 mmHg 83%
    06:00 +16°C° 0 mm 2 mps 759 mmHg 84%
    07:00 +18°C° 0 mm 2 mps 759 mmHg 76%
    08:00 +19°C° 0 mm 3 mps 759 mmHg 68%
    09:00 +21°C° 0 mm 4 mps 758 mmHg 60%
    10:00 +22°C° 0 mm 4 mps 758 mmHg 56%
    11:00 +23°C° 0 mm 5 mps 758 mmHg 51%
    12:00 +25°C° 0 mm 5 mps 757 mmHg 47%
    13:00 +25°C° 0 mm 5 mps 757 mmHg 45%
    14:00 +26°C° 0 mm 6 mps 757 mmHg 43%
    15:00 +26°C° 0 mm 6 mps 756 mmHg 41%
    16:00 +23°C° 0 mm 5 mps 756 mmHg 43%
    17:00 +22°C° 0 mm 4 mps 755 mmHg 45%
    18:00 +20°C° 0 mm 4 mps 755 mmHg 47%
    19:00 +19°C° 0 mm 4 mps 755 mmHg 46%
    20:00 +18°C° 0 mm 4 mps 754 mmHg 44%
    21:00 +18°C° 0 mm 4 mps 754 mmHg 43%
    22:00 +18°C° 0 mm 4 mps 753 mmHg 42%
    23:00 +16°C° 0 mm 5 mps 753 mmHg 41%

    Tomorrow, 24 September, Monday

    Time Temperature Precipitation Wind Pressure Humidity
    00:00 +16°C° 0 mm 5 mps 752 mmHg 39%
    01:00 +16°C° 0 mm 5 mps 752 mmHg 40%
    02:00 +17°C° 0 mm 6 mps 752 mmHg 42%
    03:00 +17°C° 0 mm 6 mps 751 mmHg 43%
    04:00 +16°C° 0.3 mm 6 mps 751 mmHg 50%
    05:00 +16°C° 0.3 mm 6 mps 751 mmHg 57%
    06:00 +16°C° 0.3 mm 6 mps 751 mmHg 64%
    07:00 +15°C° 1.1 mm 6 mps 752 mmHg 69%
    08:00 +14°C° 1.1 mm 6 mps 752 mmHg 74%
    09:00 +13°C° 1.1 mm 6 mps 753 mmHg 79%
    10:00 +13°C° 0 mm 6 mps 753 mmHg 75%
    11:00 +14°C° 0 mm 6 mps 753 mmHg 70%
    12:00 +14°C° 0 mm 6 mps 754 mmHg 66%
    13:00 +15°C° 0 mm 6 mps 754 mmHg 64%
    14:00 +15°C° 0 mm 6 mps 754 mmHg 61%
    15:00 +15°C° 0 mm 5 mps 755 mmHg 58%
    16:00 +15°C° 0 mm 4 mps 755 mmHg 62%
    17:00 +14°C° 0 mm 3 mps 755 mmHg 65%
    18:00 +14°C° 0 mm 2 mps 755 mmHg 69%
    19:00 +13°C° 0 mm 1 mps 755 mmHg 71%
    20:00 +13°C° 0 mm 1 mps 755 mmHg 74%
    21:00 +12°C° 0 mm 1 mps 755 mmHg 76%
    22:00 +12°C° 0 mm 1 mps 755 mmHg 76%
    23:00 +12°C° 0 mm 1 mps 755 mmHg 76%

    Day after tomorrow, 25 September, Tuesday

    Time Temperature Precipitation Wind Pressure Humidity
    00:00 +12°C° 0 mm 2 mps 755 mmHg 75%
    01:00 +12°C° 0 mm 2 mps 755 mmHg 76%
    02:00 +10°C° 0 mm 3 mps 754 mmHg 77%
    03:00 +10°C° 0 mm 3 mps 754 mmHg 78%
    04:00 +10°C° 0 mm 4 mps 753 mmHg 76%
    05:00 +11°C° 0 mm 4 mps 753 mmHg 74%
    06:00 +10°C° 0 mm 5 mps 752 mmHg 72%
    07:00 +11°C° 0 mm 6 mps 752 mmHg 64%
    08:00 +14°C° 0 mm 7 mps 752 mmHg 57%
    09:00 +16°C° 0 mm 8 mps 751 mmHg 50%
    10:00 +17°C° 0.1 mm 8 mps 751 mmHg 50%
    11:00 +17°C° 0.1 mm 8 mps 751 mmHg 50%
    12:00 +18°C° 0.1 mm 8 mps 750 mmHg 50%
    13:00 +18°C° 0.3 mm 7 mps 750 mmHg 55%
    14:00 +18°C° 0.3 mm 7 mps 750 mmHg 60%
    15:00 +19°C° 0.3 mm 6 mps 750 mmHg 65%
    16:00 +17°C° 0.4 mm 6 mps 750 mmHg 71%
    17:00 +15°C° 0.4 mm 5 mps 750 mmHg 76%
    18:00 +14°C° 0.4 mm 5 mps 751 mmHg 82%
    19:00 +13°C° 0.3 mm 4 mps 751 mmHg 81%
    20:00 +13°C° 0.3 mm 4 mps 752 mmHg 80%
    21:00 +12°C° 0.3 mm 3 mps 753 mmHg 79%
    22:00 +12°C° 0.2 mm 3 mps 753 mmHg 79%
    23:00 +11°C° 0.2 mm 3 mps 754 mmHg 80%

    26 September, Wednesday

    Time Temperature Precipitation Wind Pressure Humidity
    00:00 +11°C° 0.2 mm 3 mps 754 mmHg 80%
    01:00 +10°C° 0 mm 3 mps 755 mmHg 81%
    02:00 +10°C° 0 mm 3 mps 755 mmHg 82%
    03:00 +9°C° 0 mm 2 mps 755 mmHg 83%
    04:00 +9°C° 0 mm 2 mps 756 mmHg 84%
    05:00 +8°C° 0 mm 2 mps 756 mmHg 85%
    06:00 +8°C° 0 mm 2 mps 757 mmHg 86%
    07:00 +9°C° 0 mm 3 mps 757 mmHg 80%
    08:00 +10°C° 0 mm 3 mps 758 mmHg 74%
    09:00 +10°C° 0 mm 4 mps 758 mmHg 69%
    10:00 +11°C° 0 mm 4 mps 758 mmHg 63%
    11:00 +12°C° 0 mm 4 mps 759 mmHg 57%
    12:00 +13°C° 0 mm 4 mps 759 mmHg 52%
    13:00 +14°C° 0 mm 4 mps 759 mmHg 50%
    14:00 +14°C° 0 mm 4 mps 759 mmHg 48%
    15:00 +14°C° 0 mm 4 mps 759 mmHg 46%
    16:00 +13°C° 0 mm 3 mps 760 mmHg 51%
    17:00 +12°C° 0 mm 3 mps 760 mmHg 56%
    18:00 +10°C° 0 mm 2 mps 760 mmHg 61%
    19:00 +10°C° 0 mm 2 mps 761 mmHg 64%
    20:00 +9°C° 0 mm 2 mps 761 mmHg 68%
    21:00 +8°C° 0 mm 2 mps 761 mmHg 71%
    22:00 +8°C° 0 mm 2 mps 761 mmHg 73%
    23:00 +8°C° 0 mm 1 mps 761 mmHg 74%

    27 September, Thursday

    Time Temperature Precipitation Wind Pressure Humidity
    00:00 +8°C° 0 mm 1 mps 761 mmHg 76%
    01:00 +8°C° 0 mm 1 mps 762 mmHg 77%
    02:00 +7°C° 0 mm 1 mps 762 mmHg 78%
    03:00 +7°C° 0 mm 1 mps 762 mmHg 79%
    04:00 +7°C° 0 mm 1 mps 761 mmHg 80%
    05:00 +5°C° 0 mm 2 mps 761 mmHg 81%
    06:00 +5°C° 0 mm 2 mps 761 mmHg 82%
    07:00 +7°C° 0 mm 3 mps 761 mmHg 73%
    08:00 +7°C° 0 mm 4 mps 761 mmHg 65%
    09:00 +9°C° 0 mm 5 mps 761 mmHg 56%
    10:00 +10°C° 0 mm 5 mps 761 mmHg 51%
    11:00 +11°C° 0 mm 6 mps 760 mmHg 45%
    12:00 +13°C° 0 mm 6 mps 760 mmHg 40%
    13:00 +13°C° 0 mm 6 mps 759 mmHg 39%
    14:00 +12°C° 0 mm 7 mps 759 mmHg 39%
    15:00 +12°C° 0 mm 7 mps 758 mmHg 38%
    16:00 +11°C° 0 mm 6 mps 758 mmHg 41%
    17:00 +12°C° 0 mm 5 mps 758 mmHg 44%
    18:00 +11°C° 0 mm 4 mps 758 mmHg 47%
    19:00 +10°C° 0 mm 5 mps 758 mmHg 48%
    20:00 +9°C° 0 mm 5 mps 757 mmHg 49%
    21:00 +9°C° 0 mm 5 mps 757 mmHg 50%
    22:00 +9°C° 0 mm 6 mps 757 mmHg 49%
    23:00 +9°C° 0 mm 6 mps 757 mmHg 47%

    28 September, Friday

    Time Temperature Precipitation Wind Pressure Humidity
    00:00 +9°C° 0 mm 6 mps 756 mmHg 46%
    01:00 +9°C° 0 mm 6 mps 756 mmHg 50%
    02:00 +9°C° 0 mm 6 mps 756 mmHg 54%
    03:00 +9°C° 0 mm 6 mps 756 mmHg 57%
    04:00 +8°C° 0 mm 5 mps 756 mmHg 62%
    05:00 +8°C° 0 mm 5 mps 756 mmHg 66%
    06:00 +7°C° 0 mm 4 mps 757 mmHg 70%
    07:00 +8°C° 0 mm 4 mps 757 mmHg 68%
    08:00 +9°C° 0 mm 5 mps 757 mmHg 66%
    09:00 +12°C° 0 mm 5 mps 757 mmHg 64%
    10:00 +13°C° 0 mm 5 mps 757 mmHg 62%
    11:00 +14°C° 0 mm 5 mps 757 mmHg 59%
    12:00 +15°C° 0 mm 5 mps 757 mmHg 57%
    13:00 +16°C° 0 mm 6 mps 756 mmHg 55%
    14:00 +16°C° 0 mm 6 mps 756 mmHg 54%
    15:00 +17°C° 0 mm 6 mps 756 mmHg 52%
    16:00 +16°C° 0 mm 6 mps 755 mmHg 56%
    17:00 +15°C° 0 mm 5 mps 755 mmHg 59%
    18:00 +14°C° 0 mm 5 mps 755 mmHg 63%
    19:00 +14°C° 0 mm 5 mps 755 mmHg 64%
    20:00 +14°C° 0 mm 5 mps 755 mmHg 65%
    21:00 +13°C° 0 mm 6 mps 755 mmHg 66%
    22:00 +13°C° 0 mm 6 mps 755 mmHg 67%
    23:00 +13°C° 0 mm 6 mps 754 mmHg 68%
    Show more